Time,TemperatureF,DewpointF,PressureIn,WindDirection,WindDirectionDegrees,WindSpeedMPH,WindSpeedGustMPH,Humidity,HourlyPrecipIn,Conditions,Clouds,dailyrainin,SoftwareType,DateUTC
2013-11-03 00:01:00,59.0,13.0,-100.00,South,177,6.0,14.0,16,0.00,,,0.00,,2013-11-03 00:01:00,
2013-11-03 00:11:00,59.0,13.0,-100.00,South,177,6.0,14.0,16,0.00,,,0.00,,2013-11-03 00:11:00,
2013-11-03 00:42:00,57.0,13.0,-100.00,East,90,3.0,13.0,17,0.00,,,0.00,,2013-11-03 00:42:00,
2013-11-03 00:52:00,57.0,13.0,-100.00,East,90,3.0,13.0,17,0.00,,,0.00,,2013-11-03 00:52:00,
2013-11-03 01:02:00,57.0,13.0,-100.00,East,90,3.0,13.0,17,0.00,,,0.00,,2013-11-03 01:02:00,
2013-11-03 01:11:00,57.0,13.0,-100.00,East,90,3.0,13.0,17,0.00,,,0.00,,2013-11-03 01:11:00,
2013-11-03 01:42:00,53.0,13.0,-100.00,SSE,159,5.0,11.0,20,0.00,,,0.00,,2013-11-03 01:42:00,
2013-11-03 01:52:00,53.0,13.0,-100.00,SSE,159,5.0,11.0,20,0.00,,,0.00,,2013-11-03 01:52:00,
2013-11-03 02:02:00,53.0,13.0,-100.00,SSE,159,5.0,11.0,20,0.00,,,0.00,,2013-11-03 02:02:00,
2013-11-03 02:11:00,53.0,13.0,-100.00,SSE,159,5.0,11.0,20,0.00,,,0.00,,2013-11-03 02:11:00,
2013-11-03 02:43:00,50.0,9.0,-100.00,South,169,5.0,14.0,19,0.00,,,-99.99,,2013-11-03 02:43:00,
2013-11-03 02:52:00,50.0,9.0,-100.00,South,169,5.0,14.0,19,0.00,,,-99.99,,2013-11-03 02:52:00,
2013-11-03 03:02:00,50.0,9.0,-100.00,South,169,5.0,14.0,19,0.00,,,-99.99,,2013-11-03 03:02:00,
2013-11-03 03:11:00,50.0,9.0,-100.00,South,169,5.0,14.0,19,0.00,,,-99.99,,2013-11-03 03:11:00,
2013-11-03 03:45:00,51.0,10.0,-100.00,SSE,156,6.0,13.0,19,0.00,,,0.00,,2013-11-03 03:45:00,
2013-11-03 03:54:00,51.0,10.0,-100.00,SSE,156,6.0,13.0,19,0.00,,,0.00,,2013-11-03 03:54:00,
2013-11-03 04:02:00,-999.0,-99.9,-100.00,SSE,156,6.0,13.0,-999,-99.99,,,-99.99,,2013-11-03 04:02:00,
2013-11-03 04:13:00,51.0,10.0,-100.00,SSE,156,6.0,13.0,19,0.00,,,0.00,,2013-11-03 04:13:00,
2013-11-03 04:44:00,51.0,10.0,-100.00,SSE,149,6.0,16.0,19,0.00,,,0.00,,2013-11-03 04:44:00,
2013-11-03 04:52:00,51.0,10.0,-100.00,SSE,149,6.0,16.0,19,0.00,,,0.00,,2013-11-03 04:52:00,
2013-11-03 05:03:00,51.0,10.0,-100.00,SSE,149,6.0,16.0,19,0.00,,,0.00,,2013-11-03 05:03:00,
2013-11-03 05:43:00,49.0,10.0,-100.00,South,170,6.0,13.0,20,0.00,,,0.00,,2013-11-03 05:43:00,
2013-11-03 05:53:00,49.0,10.0,-100.00,South,170,6.0,13.0,20,0.00,,,0.00,,2013-11-03 05:53:00,
2013-11-03 06:03:00,49.0,10.0,-100.00,South,170,6.0,13.0,20,0.00,,,0.00,,2013-11-03 06:03:00,
2013-11-03 06:43:00,50.0,8.0,-100.00,South,177,5.0,14.0,18,-99.99,,,0.00,,2013-11-03 06:43:00,
2013-11-03 06:53:00,50.0,8.0,-100.00,South,177,5.0,14.0,18,-99.99,,,0.00,,2013-11-03 06:53:00,
2013-11-03 07:01:00,50.0,8.0,-100.00,South,177,5.0,14.0,18,-99.99,,,0.00,,2013-11-03 07:01:00,
2013-11-03 07:11:00,50.0,8.0,-100.00,South,177,5.0,14.0,18,-99.99,,,0.00,,2013-11-03 07:11:00,
2013-11-03 07:52:00,45.0,27.0,-100.00,SE,145,3.0,17.0,50,0.00,,,0.00,,2013-11-03 07:52:00,
2013-11-03 08:01:00,45.0,27.0,-100.00,SE,145,3.0,17.0,50,0.00,,,0.00,,2013-11-03 08:01:00,
2013-11-03 08:11:00,45.0,27.0,-100.00,SE,145,3.0,17.0,50,0.00,,,0.00,,2013-11-03 08:11:00,
2013-11-03 08:42:00,48.0,14.0,-100.00,SE,146,8.0,20.0,25,0.00,,,0.00,,2013-11-03 08:42:00,
2013-11-03 08:52:00,48.0,14.0,-100.00,SE,146,8.0,20.0,25,0.00,,,0.00,,2013-11-03 08:52:00,
2013-11-03 09:02:00,48.0,14.0,-100.00,SE,146,8.0,20.0,25,0.00,,,0.00,,2013-11-03 09:02:00,
2013-11-03 09:11:00,48.0,14.0,-100.00,SE,146,8.0,20.0,25,0.00,,,0.00,,2013-11-03 09:11:00,
2013-11-03 09:53:00,49.0,16.0,-100.00,South,175,7.0,21.0,27,0.00,,,0.00,,2013-11-03 09:53:00,
2013-11-03 10:03:00,49.0,16.0,-100.00,South,175,7.0,21.0,27,0.00,,,0.00,,2013-11-03 10:03:00,
2013-11-03 10:13:00,49.0,16.0,-100.00,South,175,7.0,21.0,27,0.00,,,0.00,,2013-11-03 10:13:00,
2013-11-03 10:42:00,47.0,15.0,-100.00,SSW,198,7.0,19.0,27,0.00,,,0.00,,2013-11-03 10:42:00,
2013-11-03 10:53:00,47.0,15.0,-100.00,SSW,198,7.0,19.0,27,0.00,,,0.00,,2013-11-03 10:53:00,
2013-11-03 11:02:00,47.0,15.0,-100.00,SSW,198,7.0,19.0,27,0.00,,,0.00,,2013-11-03 11:02:00,
2013-11-03 11:12:00,47.0,15.0,-100.00,SSW,198,7.0,19.0,27,0.00,,,0.00,,2013-11-03 11:12:00,
2013-11-03 11:43:00,45.0,15.0,-100.00,South,190,5.0,14.0,30,0.00,,,0.00,,2013-11-03 11:43:00,
2013-11-03 11:52:00,45.0,15.0,-100.00,South,190,5.0,14.0,30,0.00,,,0.00,,2013-11-03 11:52:00,
2013-11-03 12:01:00,45.0,15.0,-100.00,South,190,5.0,14.0,30,0.00,,,0.00,,2013-11-03 12:01:00,
2013-11-03 12:11:00,45.0,15.0,-100.00,South,190,5.0,14.0,30,0.00,,,0.00,,2013-11-03 12:11:00,
2013-11-03 12:42:00,45.0,17.0,-100.00,SSW,211,6.0,14.0,32,0.00,,,0.00,,2013-11-03 12:42:00,
2013-11-03 12:52:00,45.0,17.0,-100.00,SSW,211,6.0,14.0,32,0.00,,,0.00,,2013-11-03 12:52:00,
2013-11-03 13:02:00,45.0,17.0,-100.00,SSW,211,6.0,14.0,32,0.00,,,0.00,,2013-11-03 13:02:00,
2013-11-03 13:11:00,45.0,17.0,-100.00,SSW,211,6.0,14.0,32,0.00,,,0.00,,2013-11-03 13:11:00,
2013-11-03 13:42:00,44.0,18.0,-100.00,South,181,6.0,14.0,35,0.00,,,0.00,,2013-11-03 13:42:00,
2013-11-03 13:52:00,44.0,18.0,-100.00,South,181,6.0,14.0,35,0.00,,,0.00,,2013-11-03 13:52:00,
2013-11-03 14:02:00,44.0,18.0,-100.00,South,181,6.0,14.0,35,0.00,,,0.00,,2013-11-03 14:02:00,
2013-11-03 14:11:00,44.0,18.0,-100.00,South,181,6.0,14.0,35,0.00,,,0.00,,2013-11-03 14:11:00,
2013-11-03 14:42:00,45.0,18.0,-100.00,South,179,5.0,18.0,33,0.00,,,0.00,,2013-11-03 14:42:00,
2013-11-03 14:52:00,45.0,18.0,-100.00,South,179,5.0,18.0,33,0.00,,,0.00,,2013-11-03 14:52:00,
2013-11-03 15:02:00,45.0,18.0,-100.00,South,179,5.0,18.0,33,0.00,,,0.00,,2013-11-03 15:02:00,
2013-11-03 15:11:00,45.0,18.0,-100.00,South,179,5.0,18.0,33,0.00,,,0.00,,2013-11-03 15:11:00,
2013-11-03 15:43:00,49.0,20.0,-100.00,South,175,5.0,11.0,31,0.00,,,0.00,,2013-11-03 15:43:00,
2013-11-03 15:53:00,49.0,20.0,-100.00,South,175,5.0,11.0,31,0.00,,,0.00,,2013-11-03 15:53:00,
2013-11-03 16:03:00,49.0,20.0,-100.00,South,175,5.0,11.0,31,0.00,,,0.00,,2013-11-03 16:03:00,
2013-11-03 16:13:00,49.0,20.0,-100.00,South,175,5.0,11.0,31,0.00,,,0.00,,2013-11-03 16:13:00,
2013-11-03 16:43:00,51.0,20.0,-100.00,SSW,197,7.0,16.0,29,0.00,,,0.00,,2013-11-03 16:43:00,
2013-11-03 16:53:00,51.0,20.0,-100.00,SSW,197,7.0,16.0,29,0.00,,,0.00,,2013-11-03 16:53:00,
2013-11-03 17:03:00,51.0,20.0,-100.00,SSW,197,7.0,16.0,29,0.00,,,0.00,,2013-11-03 17:03:00,
2013-11-03 17:13:00,51.0,20.0,-100.00,SSW,197,7.0,16.0,29,0.00,,,0.00,,2013-11-03 17:13:00,
2013-11-03 17:44:00,54.0,24.0,-100.00,WSW,237,6.0,17.0,31,0.00,,,0.00,,2013-11-03 17:44:00,
2013-11-03 17:53:00,54.0,24.0,-100.00,WSW,237,6.0,17.0,31,0.00,,,0.00,,2013-11-03 17:53:00,
2013-11-03 18:02:00,54.0,24.0,-100.00,WSW,237,6.0,17.0,31,0.00,,,0.00,,2013-11-03 18:02:00,
2013-11-03 18:11:00,54.0,24.0,-100.00,WSW,237,6.0,17.0,31,0.00,,,0.00,,2013-11-03 18:11:00,
2013-11-03 18:42:00,56.0,25.0,-100.00,SW,227,7.0,21.0,30,0.00,,,0.00,,2013-11-03 18:42:00,
2013-11-03 18:52:00,56.0,25.0,-100.00,SW,227,7.0,21.0,30,0.00,,,0.00,,2013-11-03 18:52:00,
2013-11-03 19:01:00,56.0,25.0,-100.00,SW,227,7.0,21.0,30,0.00,,,0.00,,2013-11-03 19:01:00,
2013-11-03 19:11:00,56.0,25.0,-100.00,SW,227,7.0,21.0,30,0.00,,,0.00,,2013-11-03 19:11:00,
2013-11-03 19:42:00,55.0,28.0,-100.00,WSW,238,11.0,23.0,35,0.00,,,0.00,,2013-11-03 19:42:00,
2013-11-03 19:53:00,55.0,28.0,-100.00,WSW,238,11.0,23.0,35,0.00,,,0.00,,2013-11-03 19:53:00,
2013-11-03 20:01:00,55.0,28.0,-100.00,WSW,238,11.0,23.0,35,0.00,,,0.00,,2013-11-03 20:01:00,
2013-11-03 20:11:00,55.0,28.0,-100.00,WSW,238,11.0,23.0,35,0.00,,,0.00,,2013-11-03 20:11:00,
2013-11-03 20:42:00,58.0,25.0,-100.00,WSW,241,10.0,26.0,28,0.00,,,0.00,,2013-11-03 20:42:00,
2013-11-03 20:52:00,58.0,25.0,-100.00,WSW,241,10.0,26.0,28,0.00,,,0.00,,2013-11-03 20:52:00,
2013-11-03 21:02:00,58.0,25.0,-100.00,WSW,241,10.0,26.0,28,0.00,,,0.00,,2013-11-03 21:02:00,
2013-11-03 21:11:00,58.0,25.0,-100.00,WSW,241,10.0,26.0,28,0.00,,,0.00,,2013-11-03 21:11:00,
2013-11-03 21:43:00,58.0,24.0,-100.00,WSW,240,8.0,19.0,27,0.00,,,0.00,,2013-11-03 21:43:00,
2013-11-03 21:54:00,58.0,24.0,-100.00,WSW,240,8.0,19.0,27,0.00,,,0.00,,2013-11-03 21:54:00,
2013-11-03 22:03:00,58.0,24.0,-100.00,WSW,240,8.0,19.0,27,0.00,,,0.00,,2013-11-03 22:03:00,
2013-11-03 22:12:00,58.0,24.0,-100.00,WSW,240,8.0,19.0,27,0.00,,,0.00,,2013-11-03 22:12:00,
2013-11-03 22:43:00,58.0,23.0,-100.00,WSW,238,6.0,21.0,26,0.00,,,0.00,,2013-11-03 22:43:00,
2013-11-03 22:52:00,58.0,23.0,-100.00,WSW,238,6.0,21.0,26,0.00,,,0.00,,2013-11-03 22:52:00,
2013-11-03 23:02:00,58.0,23.0,-100.00,WSW,238,6.0,21.0,26,0.00,,,0.00,,2013-11-03 23:02:00,
2013-11-03 23:12:00,58.0,23.0,-100.00,WSW,238,6.0,21.0,26,0.00,,,0.00,,2013-11-03 23:12:00,
2013-11-03 23:42:00,57.0,22.0,-100.00,WSW,255,6.0,23.0,25,0.00,,,0.00,,2013-11-03 23:42:00,
2013-11-03 23:53:00,57.0,22.0,-100.00,WSW,255,6.0,23.0,25,0.00,,,0.00,,2013-11-03 23:53:00,